| time (UTC) | temp F | wind direction | speed MPH | gust MPH | rain 1hr in | rain 24hr in | rain mn in | humidity % | barometer mb |
| 20260502170254 | 59 | 100 | 1.0 | 3.0 | 0.05 | 0.62 | 0.62 | 99 | 1016.9 |
| 20260502164242 | 59 | 61 | 2.0 | 2.0 | 0.05 | 0.60 | 0.60 | 99 | 1017.4 |
| 20260502163737 | 59 | 28 | 2.0 | 3.0 | 0.05 | 0.60 | 0.60 | 99 | 1017.1 |
| 20260502163234 | 59 | 88 | 2.0 | 3.0 | 0.00 | 0.59 | 0.59 | 99 | 1017.0 |
| 20260502162731 | 58 | 111 | 0.0 | 2.0 | 0.07 | 0.59 | 0.59 | 99 | 1017.2 |
| 20260502162228 | 59 | 84 | 1.0 | 3.0 | 0.07 | 0.59 | 0.59 | 99 | 1017.7 |
| 20260502161725 | 59 | 349 | 4.0 | 5.0 | 0.05 | 0.58 | 0.58 | 99 | 1017.5 |
| 20260502161222 | 59 | 100 | 1.0 | 5.0 | 0.05 | 0.58 | 0.58 | 99 | 1017.6 |
| 20260502160720 | 59 | 70 | 1.0 | 6.0 | 0.07 | 0.57 | 0.57 | 99 | 1017.3 |
| 20260502160219 | 59 | 76 | 2.0 | 2.0 | 0.07 | 0.57 | 0.57 | 99 | 1017.4 |
| 20260502152143 | 58 | 42 | 2.0 | 5.0 | 0.07 | 0.54 | 0.54 | 99 | 1017.1 |
| 20260502151640 | 57 | 62 | 2.0 | 2.0 | 0.00 | 0.53 | 0.53 | 99 | 1017.0 |
| 20260502151137 | 57 | 83 | 1.0 | 3.0 | 0.05 | 0.53 | 0.53 | 99 | 1017.1 |
| 20260502150635 | 57 | 68 | 2.0 | 5.0 | 0.05 | 0.53 | 0.53 | 99 | 1017.2 |
| 20260502150131 | 58 | 48 | 2.0 | 2.0 | 0.00 | 0.52 | 0.52 | 99 | 1017.7 |
| 20260502130519 | 56 | 342 | 4.0 | 5.0 | 0.05 | 0.45 | 0.45 | 99 | 1018.4 |
| 20260502123502 | 56 | 31 | 3.0 | 3.0 | 0.00 | 0.43 | 0.43 | 99 | 1017.5 |
| 20260502122959 | 56 | 48 | 3.0 | 5.0 | 0.05 | 0.43 | 0.43 | 99 | 1017.4 |
| 20260502122455 | 56 | 38 | 2.0 | 3.0 | 0.00 | 0.42 | 0.42 | 99 | 1017.3 |
| 20260502121953 | 57 | 87 | 1.0 | 3.0 | 0.00 | 0.42 | 0.42 | 99 | 1017.4 |
| 20260502121450 | 57 | 56 | 2.0 | 3.0 | 0.07 | 0.42 | 0.42 | 99 | 1017.7 |
| 20260502120948 | 57 | 94 | 1.0 | 2.0 | 0.07 | 0.42 | 0.42 | 99 | 1017.5 |
| 20260502120444 | 56 | 26 | 3.0 | 5.0 | 0.00 | 0.41 | 0.41 | 99 | 1017.5 |
| 20260502115438 | 56 | 89 | 3.0 | 3.0 | 0.07 | 0.41 | 0.41 | 99 | 1017.3 |
| 20260502114934 | 57 | 69 | 2.0 | 3.0 | 0.07 | 0.41 | 0.41 | 99 | 1017.0 |
| 20260502114431 | 57 | 81 | 2.0 | 5.0 | 0.00 | 0.40 | 0.40 | 99 | 1017.3 |
| 20260502113928 | 58 | 82 | 1.0 | 2.0 | 0.05 | 0.40 | 0.40 | 99 | 1017.2 |
| 20260502113426 | 58 | 90 | 1.0 | 2.0 | 0.05 | 0.40 | 0.40 | 99 | 1017.4 |
| 20260502112925 | 58 | 65 | 2.0 | 2.0 | 0.00 | 0.39 | 0.39 | 99 | 1017.1 |
| 20260502112422 | 58 | 64 | 2.0 | 3.0 | 0.00 | 0.39 | 0.39 | 99 | 1016.9 |
| 20260502111919 | 58 | 35 | 2.0 | 6.0 | 0.07 | 0.39 | 0.39 | 99 | 1016.7 |
| 20260502111416 | 58 | 57 | 1.0 | 5.0 | 0.07 | 0.39 | 0.39 | 99 | 1016.6 |
| 20260502110913 | 58 | 109 | 0.0 | 2.0 | 0.00 | 0.38 | 0.38 | 99 | 1016.6 |
| 20260502110411 | 58 | 94 | 1.0 | 2.0 | 0.00 | 0.38 | 0.38 | 99 | 1016.6 |
| 20260502105908 | 58 | 61 | 2.0 | 2.0 | 0.05 | 0.38 | 0.38 | 99 | 1016.6 |
| 20260502105405 | 58 | 50 | 3.0 | 5.0 | 0.05 | 0.38 | 0.38 | 99 | 1016.5 |
| 20260502104903 | 58 | 22 | 3.0 | 3.0 | 0.00 | 0.37 | 0.37 | 99 | 1016.3 |
| 20260502104400 | 58 | 351 | 3.0 | 5.0 | 0.00 | 0.37 | 0.37 | 99 | 1016.4 |
| 20260502103857 | 58 | 351 | 3.0 | 5.0 | 0.07 | 0.37 | 0.37 | 99 | 1016.4 |
| 20260502103355 | 58 | 349 | 3.0 | 5.0 | 0.07 | 0.37 | 0.37 | 99 | 1016.4 |
| 20260502102852 | 58 | 52 | 2.0 | 3.0 | 0.00 | 0.36 | 0.36 | 99 | 1015.9 |
| 20260502102348 | 58 | 21 | 3.0 | 6.0 | 0.00 | 0.36 | 0.36 | 99 | 1016.1 |
| 20260502101846 | 58 | 318 | 2.0 | 2.0 | 0.05 | 0.36 | 0.36 | 99 | 1015.9 |
| 20260502101344 | 58 | 71 | 2.0 | 3.0 | 0.00 | 0.35 | 0.35 | 99 | 1015.7 |
| 20260502100842 | 58 | 57 | 3.0 | 3.0 | 0.00 | 0.35 | 0.35 | 99 | 1015.7 |
| 20260502100341 | 58 | 89 | 1.0 | 2.0 | 0.07 | 0.35 | 0.35 | 99 | 1015.9 |
| 20260502091315 | 58 | 108 | 1.0 | 2.0 | 0.05 | 0.32 | 0.32 | 99 | 1017.0 |
| 20260502090813 | 58 | 104 | 1.0 | 1.0 | 0.00 | 0.31 | 0.31 | 99 | 1016.9 |
| 20260502090309 | 58 | 32 | 3.0 | 3.0 | 0.07 | 0.31 | 0.31 | 99 | 1016.8 |
| 20260502071204 | 60 | 160 | 2.0 | 5.0 | 0.05 | 0.21 | 0.21 | 99 | 1018.7 |
| 20260502070702 | 60 | 185 | 3.0 | 3.0 | 0.07 | 0.20 | 0.20 | 99 | 1018.8 |
| 20260502070200 | 61 | 186 | 2.0 | 3.0 | 0.12 | 0.20 | 0.20 | 99 | 1018.4 |
| 20260502065658 | 60 | 184 | 1.0 | 2.0 | 0.05 | 0.19 | 0.19 | 99 | 1018.2 |
| 20260502065155 | 60 | 251 | 3.0 | 3.0 | 0.07 | 0.18 | 0.18 | 99 | 1018.1 |
| 20260502064654 | 60 | 65 | 2.0 | 2.0 | 0.07 | 0.17 | 0.17 | 99 | 1017.4 |
| 20260502064151 | 61 | 146 | 0.0 | 0.0 | 0.12 | 0.17 | 0.17 | 99 | 1017.8 |
| 20260502063649 | 61 | 118 | 0.0 | 2.0 | 0.12 | 0.16 | 0.16 | 99 | 1017.7 |
| 20260502063146 | 61 | 87 | 2.0 | 2.0 | 0.12 | 0.15 | 0.15 | 99 | 1017.6 |
| 20260502062643 | 60 | 141 | 1.0 | 1.0 | 0.12 | 0.13 | 0.13 | 99 | 1018.3 |
| 20260502062141 | 61 | 174 | 1.0 | 1.0 | 0.12 | 0.12 | 0.12 | 98 | 1018.7 |
| 20260502061639 | 61 | 188 | 1.0 | 2.0 | 0.12 | 0.11 | 0.11 | 98 | 1018.8 |
| 20260502061136 | 61 | 318 | 2.0 | 6.0 | 0.12 | 0.10 | 0.10 | 98 | 1018.2 |
| 20260502060636 | 61 | 65 | 2.0 | 2.0 | 0.07 | 0.09 | 0.09 | 98 | 1017.9 |
| 20260502060133 | 62 | 334 | 3.0 | 3.0 | 0.05 | 0.08 | 0.08 | 98 | 1018.2 |
| 20260502055631 | 62 | 102 | 1.0 | 2.0 | 0.07 | 0.07 | 0.07 | 98 | 1018.2 |
| 20260502055129 | 62 | 4 | 2.0 | 2.0 | 0.07 | 0.07 | 0.07 | 98 | 1018.4 |
| 20260502054628 | 62 | 60 | 2.0 | 3.0 | 0.05 | 0.06 | 0.06 | 98 | 1018.5 |
| 20260502054125 | 62 | 129 | 0.0 | 1.0 | 0.05 | 0.06 | 0.06 | 98 | 1018.4 |
| 20260502053622 | 62 | 93 | 1.0 | 2.0 | 0.07 | 0.05 | 0.05 | 98 | 1018.3 |
| 20260502053119 | 62 | 122 | 1.0 | 1.0 | 0.00 | 0.04 | 0.04 | 98 | 1018.7 |
| 20260502052617 | 62 | 165 | 0.0 | 1.0 | 0.07 | 0.04 | 0.04 | 98 | 1018.7 |
| 20260502052115 | 62 | 144 | 0.0 | 1.0 | 0.07 | 0.04 | 0.04 | 98 | 1018.7 |
| 20260502051613 | 62 | 91 | 1.0 | 1.0 | 0.05 | 0.03 | 0.03 | 98 | 1018.6 |
| 20260502051111 | 62 | 93 | 1.0 | 3.0 | 0.05 | 0.03 | 0.03 | 98 | 1018.6 |
| 20260502050607 | 62 | 83 | 2.0 | 2.0 | 0.00 | 0.02 | 0.02 | 98 | 1018.5 |
| 20260502050104 | 62 | 102 | 1.0 | 2.0 | 0.00 | 0.02 | 0.02 | 98 | 1018.4 |
| 20260502045600 | 62 | 50 | 2.0 | 2.0 | 0.00 | 0.02 | 0.02 | 98 | 1018.7 |
| 20260502045057 | 62 | 91 | 1.0 | 2.0 | 0.07 | 0.02 | 0.02 | 98 | 1018.7 |
| 20260502044553 | 62 | 95 | 1.0 | 2.0 | 0.07 | 0.02 | 0.02 | 98 | 1018.6 |
| 20260502044050 | 62 | 23 | 2.0 | 2.0 | 0.00 | 0.01 | 0.01 | 98 | 1018.5 |
| 20260502043548 | 62 | 104 | 1.0 | 2.0 | 0.00 | 0.01 | 0.01 | 98 | 1018.4 |
| 20260502043044 | 62 | 172 | 1.0 | 2.0 | 0.00 | 0.01 | 0.01 | 98 | 1018.6 |
| 20260502042539 | 62 | 60 | 2.0 | 2.0 | 0.05 | 0.01 | 0.01 | 98 | 1018.7 |
| 20260502042037 | 62 | 340 | 0.0 | 2.0 | 0.05 | 0.01 | 0.01 | 98 | 1018.3 |
| 20260502041534 | 62 | 178 | 1.0 | 1.0 | 0.00 | 0.00 | 0.00 | 98 | 1018.2 |
| 20260502041031 | 63 | 169 | 1.0 | 1.0 | 0.00 | 0.00 | 0.00 | 98 | 1018.5 |
| 20260502040528 | 63 | 84 | 1.0 | 2.0 | 0.00 | 0.00 | 0.00 | 97 | 1018.2 |
| 20260502040025 | 63 | 109 | 1.0 | 1.0 | 0.07 | 0.03 | 0.03 | 97 | 1018.0 |
| 20260502035521 | 63 | 106 | 1.0 | 1.0 | 0.07 | 0.03 | 0.03 | 97 | 1018.0 |
| 20260502035018 | 63 | 86 | 1.0 | 2.0 | 0.00 | 0.02 | 0.02 | 97 | 1018.2 |
| 20260502034516 | 63 | 90 | 1.0 | 1.0 | 0.00 | 0.02 | 0.02 | 97 | 1018.1 |
| 20260502034015 | 63 | 90 | 1.0 | 1.0 | 0.00 | 0.02 | 0.02 | 97 | 1018.2 |
| 20260502033512 | 63 | 102 | 1.0 | 2.0 | 0.00 | 0.02 | 0.02 | 97 | 1018.1 |
| 20260502033009 | 63 | 103 | 0.0 | 1.0 | 0.05 | 0.02 | 0.02 | 97 | 1018.0 |
| 20260502032505 | 63 | 103 | 1.0 | 1.0 | 0.00 | 0.01 | 0.01 | 97 | 1018.1 |
| 20260502032002 | 63 | 103 | 0.0 | 1.0 | 0.00 | 0.01 | 0.01 | 97 | 1018.2 |
| 20260502031500 | 63 | 103 | 0.0 | 1.0 | 0.00 | 0.01 | 0.01 | 97 | 1018.3 |
| 20260502030958 | 63 | 103 | 0.0 | 0.0 | 0.07 | 0.01 | 0.01 | 97 | 1018.5 |
| 20260502030456 | 63 | 103 | 0.0 | 0.0 | 0.07 | 0.01 | 0.01 | 97 | 1018.3 |
| 20260502025954 | 63 | 103 | 0.0 | 1.0 | 0.00 | 0.00 | 0.00 | 97 | 1018.2 |
| 20260502025450 | 63 | 103 | 1.0 | 1.0 | 0.00 | 0.00 | 0.00 | 97 | 1018.1 |
| 20260502024948 | 63 | 103 | 0.0 | 1.0 | 0.00 | 0.00 | 0.00 | 97 | 1018.0 |
| 20260502024446 | 63 | 102 | 0.0 | 1.0 | 0.00 | 0.00 | 0.00 | 97 | 1018.2 |
| 20260502023944 | 63 | 102 | 1.0 | 1.0 | 0.00 | 0.00 | 0.00 | 96 | 1018.0 |
| 20260502023441 | 63 | 101 | 1.0 | 2.0 | 0.00 | 0.00 | 0.00 | 96 | 1018.3 |
| 20260502022939 | 63 | 105 | 1.0 | 2.0 | 0.00 | 0.00 | 0.00 | 96 | 1018.3 |
| 20260502022435 | 63 | 122 | 0.0 | 1.0 | 0.00 | 0.00 | 0.00 | 96 | 1018.4 |
| 20260502021932 | 63 | 123 | 1.0 | 1.0 | 0.00 | 0.00 | 0.00 | 96 | 1018.5 |
| 20260502021429 | 63 | 110 | 1.0 | 1.0 | 0.00 | 0.00 | 0.00 | 96 | 1018.4 |
| 20260502020926 | 63 | 116 | 0.0 | 1.0 | 0.00 | 0.00 | 0.00 | 96 | 1018.0 |
| 20260502020425 | 64 | 98 | 1.0 | 2.0 | 0.00 | 0.00 | 0.00 | 96 | 1018.1 |
| 20260502015920 | 64 | 116 | 0.0 | 1.0 | 0.00 | 0.00 | 0.00 | 96 | 1018.2 |
| 20260502015419 | 64 | 118 | 1.0 | 1.0 | 0.00 | 0.00 | 0.00 | 96 | 1018.2 |
| 20260502014915 | 64 | 117 | 1.0 | 1.0 | 0.00 | 0.00 | 0.00 | 96 | 1018.0 |
| 20260502014412 | 64 | 101 | 1.0 | 1.0 | 0.00 | 0.00 | 0.00 | 96 | 1018.2 |
| 20260502013908 | 64 | 111 | 1.0 | 1.0 | 0.00 | 0.00 | 0.00 | 96 | 1018.2 |
| 20260502013404 | 64 | 125 | 1.0 | 1.0 | 0.00 | 0.00 | 0.00 | 96 | 1018.2 |
| 20260502012901 | 64 | 128 | 0.0 | 1.0 | 0.00 | 0.00 | 0.00 | 96 | 1018.4 |
| 20260502012359 | 64 | 110 | 1.0 | 1.0 | 0.00 | 0.00 | 0.00 | 96 | 1018.2 |
| 20260502011856 | 64 | 107 | 1.0 | 2.0 | 0.00 | 0.00 | 0.00 | 96 | 1018.6 |
| 20260502011352 | 64 | 121 | 0.0 | 1.0 | 0.00 | 0.00 | 0.00 | 95 | 1018.7 |
| 20260502010849 | 64 | 118 | 0.0 | 1.0 | 0.00 | 0.00 | 0.00 | 95 | 1018.5 |
| 20260502010346 | 64 | 108 | 1.0 | 1.0 | 0.00 | 0.00 | 0.00 | 96 | 1018.6 |
| 20260502005842 | 64 | 111 | 1.0 | 2.0 | 0.00 | 0.00 | 0.00 | 96 | 1019.0 |
| 20260502005340 | 64 | 113 | 1.0 | 2.0 | 0.00 | 0.00 | 0.00 | 96 | 1018.8 |
| 20260502004837 | 64 | 4 | 2.0 | 3.0 | 0.00 | 0.00 | 0.00 | 96 | 1018.7 |
| 20260502004333 | 64 | 93 | 1.0 | 2.0 | 0.00 | 0.00 | 0.00 | 96 | 1018.8 |
| 20260502003831 | 64 | 352 | 3.0 | 3.0 | 0.00 | 0.00 | 0.00 | 96 | 1018.6 |
| 20260502003328 | 64 | 17 | 2.0 | 3.0 | 0.00 | 0.00 | 0.00 | 96 | 1018.5 |
| 20260502002824 | 64 | 68 | 2.0 | 3.0 | 0.00 | 0.00 | 0.00 | 96 | 1018.5 |
| 20260502002322 | 65 | 52 | 2.0 | 3.0 | 0.00 | 0.00 | 0.00 | 96 | 1017.9 |
| 20260502001819 | 65 | 89 | 1.0 | 5.0 | 0.00 | 0.00 | 0.00 | 96 | 1017.7 |
| 20260502001317 | 65 | 46 | 2.0 | 2.0 | 0.00 | 0.00 | 0.00 | 96 | 1017.8 |
| 20260502000814 | 65 | 109 | 1.0 | 2.0 | 0.00 | 0.00 | 0.00 | 96 | 1017.7 |
| 20260502000312 | 65 | 90 | 1.0 | 1.0 | 0.00 | 0.00 | 0.00 | 96 | 1017.6 |
| 20260501235808 | 65 | 78 | 1.0 | 2.0 | 0.00 | 0.00 | 0.00 | 96 | 1017.6 |
| 20260501235305 | 65 | 79 | 1.0 | 2.0 | 0.00 | 0.00 | 0.00 | 96 | 1017.6 |
| 20260501234759 | 65 | 101 | 1.0 | 2.0 | 0.00 | 0.00 | 0.00 | 96 | 1017.6 |
| 20260501234256 | 65 | 77 | 2.0 | 3.0 | 0.00 | 0.00 | 0.00 | 95 | 1017.2 |
| 20260501233755 | 65 | 112 | 1.0 | 2.0 | 0.00 | 0.00 | 0.00 | 95 | 1017.3 |
| 20260501233252 | 65 | 92 | 1.0 | 2.0 | 0.00 | 0.00 | 0.00 | 95 | 1017.6 |
| 20260501232747 | 65 | 101 | 1.0 | 1.0 | 0.00 | 0.00 | 0.00 | 95 | 1017.4 |
| 20260501232245 | 65 | 62 | 1.0 | 3.0 | 0.00 | 0.00 | 0.00 | 95 | 1017.2 |
| 20260501231742 | 66 | 134 | 1.0 | 2.0 | 0.00 | 0.00 | 0.00 | 95 | 1017.2 |
| 20260501231240 | 66 | 73 | 1.0 | 2.0 | 0.00 | 0.00 | 0.00 | 95 | 1017.2 |
| 20260501230738 | 66 | 45 | 2.0 | 3.0 | 0.00 | 0.00 | 0.00 | 95 | 1017.3 |
| 20260501230237 | 66 | 92 | 1.0 | 2.0 | 0.00 | 0.00 | 0.00 | 95 | 1017.0 |
| 20260501225734 | 66 | 49 | 3.0 | 5.0 | 0.00 | 0.00 | 0.00 | 94 | 1016.8 |
| 20260501225231 | 66 | 60 | 2.0 | 5.0 | 0.00 | 0.00 | 0.00 | 94 | 1016.9 |
| 20260501224727 | 66 | 111 | 2.0 | 3.0 | 0.00 | 0.00 | 0.00 | 94 | 1016.9 |
| 20260501224225 | 66 | 38 | 3.0 | 3.0 | 0.00 | 0.00 | 0.00 | 93 | 1017.1 |
| 20260501223721 | 66 | 39 | 3.0 | 3.0 | 0.00 | 0.00 | 0.00 | 93 | 1017.2 |
| 20260501223218 | 67 | 76 | 3.0 | 5.0 | 0.00 | 0.00 | 0.00 | 92 | 1017.1 |
| 20260501222714 | 67 | 54 | 1.0 | 6.0 | 0.00 | 0.00 | 0.00 | 92 | 1017.2 |
| 20260501222211 | 67 | 24 | 3.0 | 6.0 | 0.00 | 0.00 | 0.00 | 91 | 1017.1 |
| 20260501221707 | 67 | 30 | 3.0 | 3.0 | 0.00 | 0.00 | 0.00 | 90 | 1017.1 |
| 20260501221205 | 68 | 70 | 3.0 | 3.0 | 0.00 | 0.00 | 0.00 | 89 | 1017.1 |
| 20260501220702 | 68 | 36 | 4.0 | 5.0 | 0.00 | 0.00 | 0.00 | 88 | 1017.2 |
| 20260501220159 | 69 | 39 | 3.0 | 5.0 | 0.00 | 0.00 | 0.00 | 88 | 1017.5 |
| 20260501215656 | 69 | 120 | 0.0 | 1.0 | 0.00 | 0.00 | 0.00 | 87 | 1017.3 |
| 20260501215151 | 69 | 133 | 2.0 | 3.0 | 0.00 | 0.00 | 0.00 | 86 | 1017.1 |
| 20260501214647 | 70 | 120 | 1.0 | 2.0 | 0.00 | 0.00 | 0.00 | 84 | 1017.5 |
| 20260501214142 | 71 | 96 | 3.0 | 5.0 | 0.00 | 0.00 | 0.00 | 83 | 1017.5 |
| 20260501213634 | 72 | 102 | 3.0 | 5.0 | 0.00 | 0.00 | 0.00 | 80 | 1017.5 |
| 20260501213130 | 72 | 56 | 2.0 | 3.0 | 0.00 | 0.00 | 0.00 | 74 | 1017.3 |
| 20260501212627 | 72 | 171 | 0.0 | 3.0 | 0.00 | 0.00 | 0.00 | 72 | 1017.3 |
| 20260501212123 | 73 | 179 | 2.0 | 5.0 | 0.00 | 0.00 | 0.00 | 71 | 1017.4 |
| 20260501211620 | 72 | 297 | 3.0 | 5.0 | 0.00 | 0.00 | 0.00 | 72 | 1017.2 |
| 20260501211118 | 73 | 199 | 2.0 | 2.0 | 0.00 | 0.00 | 0.00 | 81 | 1017.0 |
| 20260501210615 | 72 | 164 | 3.0 | 3.0 | 0.00 | 0.00 | 0.00 | 82 | 1016.8 |
| 20260501210111 | 73 | 151 | 5.0 | 6.0 | 0.00 | 0.00 | 0.00 | 81 | 1017.1 |
| 20260501205608 | 73 | 91 | 3.0 | 3.0 | 0.00 | 0.00 | 0.00 | 81 | 1016.8 |
| 20260501205105 | 73 | 75 | 3.0 | 6.0 | 0.00 | 0.00 | 0.00 | 82 | 1016.7 |
| 20260501204602 | 73 | 107 | 5.0 | 8.0 | 0.00 | 0.00 | 0.00 | 81 | 1016.7 |
| 20260501204057 | 75 | 130 | 7.0 | 8.0 | 0.00 | 0.00 | 0.00 | 78 | 1016.8 |
| 20260501203554 | 77 | 143 | 6.0 | 8.0 | 0.00 | 0.00 | 0.00 | 63 | 1016.9 |
| 20260501203052 | 77 | 343 | 2.0 | 2.0 | 0.00 | 0.00 | 0.00 | 61 | 1017.0 |
| 20260501202549 | 76 | 171 | 1.0 | 3.0 | 0.00 | 0.00 | 0.00 | 60 | 1016.7 |
| 20260501202045 | 77 | 86 | 2.0 | 3.0 | 0.00 | 0.00 | 0.00 | 60 | 1016.8 |
| 20260501201542 | 77 | 292 | 3.0 | 5.0 | 0.00 | 0.00 | 0.00 | 60 | 1016.8 |
| 20260501201038 | 77 | 246 | 2.0 | 5.0 | 0.00 | 0.00 | 0.00 | 61 | 1016.6 |
| 20260501200536 | 76 | 75 | 1.0 | 6.0 | 0.00 | 0.00 | 0.00 | 62 | 1016.8 |
| 20260501200033 | 75 | 88 | 1.0 | 5.0 | 0.00 | 0.00 | 0.00 | 63 | 1017.1 |
| 20260501195531 | 75 | 8 | 2.0 | 6.0 | 0.00 | 0.00 | 0.00 | 63 | 1016.9 |
| 20260501195026 | 76 | 253 | 5.0 | 6.0 | 0.00 | 0.00 | 0.00 | 63 | 1017.3 |
| 20260501194522 | 75 | 22 | 3.0 | 5.0 | 0.00 | 0.00 | 0.00 | 64 | 1017.2 |
| 20260501194018 | 76 | 352 | 3.0 | 6.0 | 0.00 | 0.00 | 0.00 | 64 | 1017.4 |
| 20260501193516 | 75 | 12 | 3.0 | 6.0 | 0.00 | 0.00 | 0.00 | 63 | 1017.4 |
| 20260501193014 | 76 | 281 | 3.0 | 5.0 | 0.00 | 0.00 | 0.00 | 63 | 1017.5 |
| 20260501192510 | 76 | 293 | 5.0 | 6.0 | 0.00 | 0.00 | 0.00 | 64 | 1017.7 |
| 20260501192008 | 76 | 291 | 2.0 | 5.0 | 0.00 | 0.00 | 0.00 | 64 | 1017.8 |
| 20260501191505 | 76 | 235 | 4.0 | 6.0 | 0.00 | 0.00 | 0.00 | 63 | 1017.6 |
| 20260501191002 | 77 | 241 | 3.0 | 5.0 | 0.00 | 0.00 | 0.00 | 61 | 1017.6 |
| 20260501190457 | 77 | 226 | 2.0 | 7.0 | 0.00 | 0.00 | 0.00 | 61 | 1017.5 |
| 20260501185952 | 77 | 195 | 3.0 | 6.0 | 0.00 | 0.00 | 0.00 | 62 | 1018.0 |
| 20260501185448 | 76 | 49 | 2.0 | 2.0 | 0.00 | 0.00 | 0.00 | 64 | 1017.8 |
| 20260501184945 | 75 | 200 | 1.0 | 6.0 | 0.00 | 0.00 | 0.00 | 66 | 1017.9 |
| 20260501184441 | 75 | 139 | 1.0 | 3.0 | 0.00 | 0.00 | 0.00 | 65 | 1017.9 |
| 20260501183936 | 75 | 208 | 3.0 | 8.0 | 0.00 | 0.00 | 0.00 | 65 | 1018.0 |
| 20260501183434 | 75 | 256 | 3.0 | 8.0 | 0.00 | 0.00 | 0.00 | 67 | 1017.9 |
| 20260501182930 | 74 | 248 | 4.0 | 6.0 | 0.00 | 0.00 | 0.00 | 69 | 1018.1 |
| 20260501182427 | 75 | 260 | 5.0 | 6.0 | 0.00 | 0.00 | 0.00 | 70 | 1018.1 |
| 20260501181924 | 75 | 295 | 4.0 | 8.0 | 0.00 | 0.00 | 0.00 | 70 | 1018.3 |
| 20260501181421 | 75 | 200 | 2.0 | 5.0 | 0.00 | 0.00 | 0.00 | 70 | 1018.1 |
| 20260501180918 | 75 | 249 | 3.0 | 6.0 | 0.00 | 0.00 | 0.00 | 71 | 1018.0 |
| 20260501180415 | 74 | 357 | 3.0 | 5.0 | 0.00 | 0.00 | 0.00 | 71 | 1018.2 |
| 20260501175911 | 74 | 345 | 3.0 | 5.0 | 0.00 | 0.00 | 0.00 | 71 | 1018.1 |
| 20260501175409 | 75 | 268 | 3.0 | 3.0 | 0.00 | 0.00 | 0.00 | 72 | 1018.2 |
| 20260501174905 | 74 | 155 | 1.0 | 6.0 | 0.00 | 0.00 | 0.00 | 71 | 1017.8 |
| 20260501174403 | 74 | 226 | 3.0 | 3.0 | 0.00 | 0.00 | 0.00 | 73 | 1018.0 |
| 20260501173900 | 74 | 139 | 0.0 | 5.0 | 0.00 | 0.00 | 0.00 | 74 | 1018.2 |
| 20260501173358 | 75 | 159 | 0.0 | 3.0 | 0.00 | 0.00 | 0.00 | 74 | 1018.2 |
| 20260501172853 | 74 | 226 | 2.0 | 3.0 | 0.00 | 0.00 | 0.00 | 74 | 1018.1 |
| 20260501172348 | 74 | 188 | 1.0 | 2.0 | 0.00 | 0.00 | 0.00 | 74 | 1018.3 |
| 20260501171844 | 75 | 11 | 2.0 | 3.0 | 0.00 | 0.00 | 0.00 | 73 | 1018.2 |
| 20260501171341 | 75 | 214 | 4.0 | 5.0 | 0.00 | 0.00 | 0.00 | 73 | 1018.0 |